Station 41025 (LLNR 637) - Diamond Shoals, NC Image indicating link to RSS feed of recent meteorological observations for station 41025


Conditions at 41025 as of
(1:30 pm EDT)
1730 GMT on 06/16/2024:
     

Click on the graph icon in the table below to see a time series plot of the last five days of that observation.

5-day plot - Wind Direction Wind Direction (WDIR):NNE ( 30 deg true )
5-day plot - Wind Speed Wind Speed (WSPD): 17.5 kts
5-day plot - Wind Gust Wind Gust (GST): 19.4 kts
5-day plot - Atmospheric Pressure Atmospheric Pressure (PRES):30.18 in
5-day plot - Water Temperature Water Temperature (WTMP): 80.1 °F
5-day plot - Wind Speed at 10 Meters Wind Speed at 10 meters (WSPD10M): 17.5 kts
5-day plot - Wind Speed at 20 Meters Wind Speed at 20 meters (WSPD20M): 19.4 kts
5-day plot -  Wind Speed, Wind Gust and Atmospheric Pressure Combined plot of Wind Speed, Gust, and Air Pressure
Supplemental Measurements
Highest 1-minute Wind Speed
Time (EDT)5-day plot - 1-Minute Wind Speed WSPD 5-day plot - 1-Minute Wind Direction WDIR
1:21 pm 17.5 kts-
Previous observations
TIME
(EDT)
5-day plot - Wind Direction
WDIR
 
5-day plot - Wind Speed
WSPD
kts
5-day plot - Wind Gust
GST
kts
5-day plot - Wave Height
WVHT
ft
5-day plot - Dominant Wave Period
DPD
sec
5-day plot - Average Wave Period
APD
sec
5-day plot - Mean Wave Direction
MWD
 
5-day plot - Atmospheric Pressure
PRES
in
5-day plot - Pressure Tendency
PTDY
in
5-day plot - Air Temperature
ATMP
°F
5-day plot - Water Temperature
WTMP
°F
5-day plot - Dew Point
DEWP
°F
5-day plot - Salinity
SAL
psu
5-day plot - Visibility
VIS
nmi
5-day plot - Tide (above MLLW)
TIDE
ft
2024-06-16 01:20 pmNNE 17.5 21.4 3.6 54.5 NE30.18-- 80.1----
2024-06-16 01:10 pmNNE 15.5 19.4 3.6-4.5 NE30.18-- 80.1----
2024-06-16 01:00 pmNNE 15.5 19.4----30.18+0.01- 80.1----
2024-06-16 12:50 pmNNE 15.5 19.4 3.6 54.5 NE30.18-- 80.1----
2024-06-16 12:40 pmNNE 17.5 19.4----30.18-- 80.1----
2024-06-16 12:30 pmNNE 15.5 19.4----30.18-- 80.1----
2024-06-16 12:20 pmNNE 15.5 21.4 3.3 74.6 E30.18-- 80.1----
2024-06-16 12:10 pmNNE 17.5 21.4 3.3-4.6 E30.19-- 80.1----
2024-06-16 12:00 pmNNE 15.5 19.4----30.18+0.02- 80.1----
2024-06-16 11:50 amNNE 15.5 17.5 3.3 64.6ENE30.18-- 80.1----
2024-06-16 11:40 amNNE 15.5 19.4----30.18-- 80.1----
2024-06-16 11:30 amNNE 15.5 17.5----30.18-- 80.1----
2024-06-16 11:20 amNNE 13.6 17.5 3.0 64.6 E30.18-- 80.2----
2024-06-16 11:10 amNNE 13.6 15.5 3.0-4.6 E30.18-- 80.2----
2024-06-16 11:00 amNNE 13.6 15.5----30.18+0.04- 80.2----
2024-06-16 10:50 amNNE 13.6 15.5 3.0 64.8ESE30.18-- 80.2----
2024-06-16 10:40 amNNE 13.6 15.5----30.18-- 80.2----
2024-06-16 10:30 amNNE 13.6 15.5----30.18-- 80.2----
2024-06-16 10:20 amNNE 11.7 15.5 3.0 64.8ESE30.17-- 80.2----
2024-06-16 10:10 am N 11.7 13.6 3.0-4.8ESE30.17-- 80.2----
2024-06-16 10:00 am N 9.7 13.6----30.17+0.05- 80.2----
2024-06-16 09:50 am N 11.7 13.6 3.0 74.6 E30.17-- 80.2----
2024-06-16 09:40 amNNE 11.7 13.6----30.17-- 80.2----
2024-06-16 09:30 amNNE 11.7 15.5----30.17-- 80.2----
2024-06-16 09:20 amNNE 11.7 15.5 3.0 74.8 E30.17-- 80.2----
2024-06-16 09:10 amNNE 11.7 15.5 3.0-4.8 E30.16-- 80.2----
2024-06-16 09:00 amNNE 11.7 13.6----30.16+0.06- 80.2----
2024-06-16 08:50 amNNE 11.7 13.6 3.0 64.7ESE30.16-- 80.2----
2024-06-16 08:40 amNNE 11.7 13.6----30.15-------
2024-06-16 08:30 amNNE 11.7 13.6----30.15-- 80.2----
2024-06-16 08:20 amNNE 11.7 15.5 3.0 74.5ESE30.14-- 80.2----
2024-06-16 08:10 amNNE 11.7 13.6 3.0-4.5ESE30.14-- 80.4----
2024-06-16 08:00 amNNE 11.7 15.5----30.14+0.05- 80.4----
2024-06-16 07:50 amNNE 13.6 15.5 3.0 74.6ESE30.14-- 80.4----
2024-06-16 07:40 am N 13.6 15.5----30.14-- 80.4----
2024-06-16 07:30 amNNE 13.6 15.5----30.13-- 80.4----
2024-06-16 07:20 amNNE 13.6 15.5 3.0 74.6 SE30.13-- 80.4----
2024-06-16 07:10 amNNE 11.7 15.5 3.0-4.6 SE30.12-- 80.4----
2024-06-16 07:00 amNNE 13.6 15.5----30.12+0.04- 80.4----
2024-06-16 06:50 amNNE 11.7 15.5 3.0 74.8ESE30.11-- 80.4----
2024-06-16 06:40 amNNE 11.7 13.6----30.11-- 80.4----
2024-06-16 06:30 amNNE 11.7 15.5----30.11-- 80.4----
2024-06-16 06:20 amNNE 11.7 13.6 2.6 74.5 SE30.11-- 80.4----
2024-06-16 06:10 amNNE 11.7 13.6 2.6-4.5 SE30.11-- 80.4----
2024-06-16 06:00 amNNE 11.7 13.6----30.11+0.04- 80.4----
2024-06-16 05:50 amNNE 11.7 13.6 3.0 74.5 SE30.10-- 80.4----
2024-06-16 05:40 amNNE 13.6 15.5----30.10-- 80.4----
2024-06-16 05:30 amNNE 13.6 15.5----30.09-- 80.4----
2024-06-16 05:20 amNNE 13.6 15.5 3.0 74.5 SE30.09-- 80.4----
2024-06-16 05:10 amNNE 13.6 15.5----30.09-- 80.4----
2024-06-16 05:00 amNNE 13.6 15.5----30.09+0.02- 80.4----
2024-06-16 04:50 amNNE 11.7 15.5 3.0 74.5 SE30.08-- 80.4----
2024-06-16 04:40 amNNE 11.7 13.6----30.08-- 80.4----
2024-06-16 04:30 am NE 11.7 13.6----30.08-- 80.2----
2024-06-16 04:20 am NE 11.7 13.6 3.0 74.5 SE30.08-- 80.2----
2024-06-16 04:10 am NE 11.7 13.6----30.07-- 80.2----
2024-06-16 04:00 am NE 11.7 13.6----30.07+0.00- 80.2----
2024-06-16 03:50 amENE 11.7 13.6 3.3 74.6ESE30.07-- 80.4----
2024-06-16 03:40 am NE 11.7 13.6----30.07-- 80.4----
2024-06-16 03:30 am NE 11.7 15.5----30.07-- 80.4----
2024-06-16 03:20 amENE 11.7 13.6 3.0 84.4ESE30.07-- 80.4----
2024-06-16 03:10 amENE 11.7 15.5 3.0-4.4ESE30.07-- 80.4----
2024-06-16 03:00 am NE 11.7 15.5----30.07-0.01- 80.2----
2024-06-16 02:50 am NE 11.7 15.5 3.3 74.5 SE30.07-- 80.4----
2024-06-16 02:40 am NE 11.7 13.6----30.07-- 80.4----
2024-06-16 02:30 am NE 11.7 13.6----30.07-- 80.4----
2024-06-16 02:20 am NE 11.7 15.5 3.3 74.5 SE30.07-- 80.4----
2024-06-16 02:10 am NE 11.7 15.5 3.3-4.5 SE30.07-- 80.4----
2024-06-16 02:00 am NE 11.7 13.6----30.07+0.00- 80.6----
2024-06-16 01:50 am NE 11.7 15.5 3.3 64.4 SE30.07-- 81.0----
2024-06-16 01:40 am NE 11.7 15.5----30.07-- 81.0----
2024-06-16 01:30 amNNE 11.7 13.6----30.08-- 81.0----
2024-06-16 01:20 am NE 11.7 13.6 3.3 74.5 SE30.08-- 81.0----
2024-06-16 01:10 am NE 11.7 15.5 3.3-4.5 SE30.08-------
2024-06-16 01:00 am NE 11.7 13.6----30.08+0.02- 81.0----
2024-06-16 12:50 am NE 11.7 13.6 3.3 74.5SSE30.08-- 81.0----
2024-06-16 12:40 am NE 11.7 15.5----30.08-- 81.0----
2024-06-16 12:30 am NE 11.7 13.6----30.08-- 81.0----
2024-06-16 12:20 am NE 11.7 15.5 3.3 74.5 SE30.08-- 81.0----
2024-06-16 12:10 amENE 13.6 17.5 3.3-4.5 SE30.08-- 81.0----
2024-06-16 12:00 amENE 13.6 17.5----30.08+0.04- 81.0----
2024-06-15 11:50 pm NE 13.6 17.5 3.3 74.6 SE30.08-- 81.0----
2024-06-15 11:40 pm NE 13.6 17.5----30.08-- 81.1----
2024-06-15 11:30 pm NE 13.6 17.5----30.08-- 81.0----
2024-06-15 11:20 pmENE 13.6 15.5 3.6 74.6 SE30.08-- 81.1----
2024-06-15 11:10 pm NE 13.6 17.5 3.6-4.6 SE30.08-- 81.1----
2024-06-15 11:00 pm NE 13.6 17.5----30.07+0.05- 81.1----
2024-06-15 10:50 pm NE 15.5 19.4 3.3 74.6SSE30.07-- 81.1----
2024-06-15 10:40 pm NE 15.5 17.5----30.07-- 81.1----
2024-06-15 10:30 pm NE 15.5 17.5----30.06-- 81.1----
2024-06-15 10:20 pm NE 13.6 17.5 3.3 74.8SSE30.06-- 81.1----
2024-06-15 10:10 pm NE 15.5 19.4 3.3-4.8SSE30.06-- 81.1----
2024-06-15 10:00 pm NE 15.5 19.4----30.06+0.04- 81.3----
2024-06-15 09:50 pm NE 15.5 19.4 3.3 74.6SSE30.06-- 81.3----
2024-06-15 09:40 pm NE 13.6 17.5----30.06-- 81.3----
2024-06-15 09:30 pm NE 13.6 17.5----30.06-- 81.3----
2024-06-15 09:20 pmNNE 15.5 17.5 3.3 74.6 SE30.05-- 81.1----
2024-06-15 09:10 pmNNE 15.5 19.4 3.3-4.6 SE30.05-- 81.0----
2024-06-15 09:00 pmNNE 15.5 19.4----30.04+0.05- 80.8----
2024-06-15 08:50 pmNNE 15.5 19.4 3.6 74.8 SE30.04-- 80.8----
2024-06-15 08:40 pmNNE 15.5 19.4----30.03-- 80.8----
2024-06-15 08:30 pmNNE 15.5 17.5----30.03-- 80.6----
2024-06-15 08:20 pmNNE 15.5 17.5 3.6 74.7SSE30.03-- 80.6----
2024-06-15 08:10 pmNNE 15.5 19.4----30.03-- 80.6----
2024-06-15 08:00 pmNNE 15.5 19.4----30.03+0.04- 80.6----
2024-06-15 07:50 pmNNE 15.5 19.4 3.3 74.6SSE30.03-- 80.4----
2024-06-15 07:40 pmNNE 15.5 17.5----30.02-- 80.4----
2024-06-15 07:30 pmNNE 15.5 17.5----30.02-- 80.4----
2024-06-15 07:20 pmNNE 15.5 19.4 3.6 74.7 SE30.02-- 80.2----
2024-06-15 07:10 pmNNE 15.5 19.4 3.6-4.7 SE30.02-- 80.2----
2024-06-15 07:00 pmNNE 15.5 19.4----30.01+0.03- 80.2----
2024-06-15 06:50 pmNNE 15.5 19.4 3.6 74.9SSE30.01-- 80.2----
2024-06-15 06:40 pm N 15.5 19.4----30.01-- 80.2----
2024-06-15 06:30 pmNNE 15.5 19.4----30.00-- 80.2----
2024-06-15 06:20 pm N 15.5 19.4 3.3 74.6 SE30.00-- 80.2----
2024-06-15 06:10 pm N 15.5 17.5 3.3-4.6 SE29.99-- 80.2----
2024-06-15 06:00 pm N 15.5 17.5----29.99+0.01- 80.2----
2024-06-15 05:50 pmNNE 15.5 17.5 3.6 74.8SSE29.99-- 80.2----
2024-06-15 05:40 pmNNE 13.6 17.5----29.99-- 80.2----
2024-06-15 05:30 pmNNE 13.6 17.5----29.99-- 80.2----
2024-06-15 05:20 pmNNE 15.5 17.5 3.6 84.6SSE29.99-- 80.2----
2024-06-15 05:10 pmNNE 13.6 17.5----29.99-- 80.1----
2024-06-15 05:00 pmNNE 13.6 17.5----29.99+0.01- 80.1----
2024-06-15 04:50 pmNNE 15.5 17.5 3.6 44.6NNE29.99-- 80.1----
2024-06-15 04:40 pmNNE 15.5 17.5----29.99-- 80.1----
2024-06-15 04:30 pmNNE 15.5 19.4----29.98-- 80.1----
2024-06-15 04:20 pm N 15.5 21.4 3.6 74.5SSE29.99-- 80.1----
2024-06-15 04:10 pm N 17.5 21.4 3.6-4.5SSE29.99-- 80.1----
2024-06-15 04:00 pm N 17.5 21.4----29.98+0.01- 80.1----
2024-06-15 03:50 pm N 17.5 21.4 3.6 84.4 SE29.99-- 80.1----
2024-06-15 03:40 pm N 17.5 21.4----29.98-- 80.1----
2024-06-15 03:30 pm N 17.5 21.4----29.98-- 79.9----
2024-06-15 03:20 pmNNE 17.5 21.4 3.6 84.4 SE29.98-- 79.9----
2024-06-15 03:10 pmNNE 17.5 19.4 3.6-4.4 SE29.98-- 79.9----
2024-06-15 03:00 pmNNE 17.5 19.4----29.98+0.02- 79.9----
2024-06-15 02:50 pmNNE 15.5 19.4 3.6 74.5SSE29.98-- 79.9----
2024-06-15 02:40 pmNNE 15.5 19.4----29.98-- 79.9----
2024-06-15 02:30 pmNNE 15.5 19.4----29.98-- 79.9----
2024-06-15 02:20 pmNNE 17.5 21.4 3.6 84.6 SE29.98-- 79.9----
2024-06-15 02:10 pm N 17.5 21.4----29.98-- 79.7----
2024-06-15 02:00 pm N 17.5 21.4----29.98+0.03- 79.7----
2024-06-15 01:50 pm N 15.5 21.4 3.3 74.4SSE29.98-- 79.7----

Detailed Wave Summary
for 41025 as of (1:10 pm EDT)
1710 GMT on 06/16/2024:

These wave data are displayed in rounded times.

     

Click on the graph icon in the table below to see a time series plot of the last five days of that observation.

5-day plot - Significant Wave Height Significant Wave Height (WVHT): 3.6 ft
5-day plot - Wave Steepness Wave Steepness (STEEPNESS):VERY_STEEP
5-day plot - Average Wave Period Average Wave Period (APD): 4.5 sec
Previous observations
TIME
(EDT)
5-day plot - Wave Height
WVHT
ft
5-day plot - Swell Height
SwH
ft
5-day plot - Swell Period
SwP
sec
5-day plot - Swell Direction
SwD
 
5-day plot - Wind Wave Height
WWH
ft
5-day plot - Wind Wave Period
WWP
sec
5-day plot - Wind Wave Direction
WWD
 
5-day plot - Wave Steepness
STEEPNESS
 
5-day plot - Average Wave Period
APD
sec
2024-06-16 12:40 pm 3.6------VERY_STEEP 4.5
2024-06-16 12:10 pm 3.3------ AVERAGE 4.6
2024-06-16 11:40 am 3.3------ STEEP 4.6
2024-06-16 11:10 am 3.0------ STEEP 4.6
2024-06-16 10:40 am 3.0------ STEEP 4.8
2024-06-16 10:10 am 3.0------ STEEP 4.8
2024-06-16 09:40 am 3.0------ AVERAGE 4.6
2024-06-16 09:10 am 3.0------ AVERAGE 4.8
2024-06-16 08:40 am 3.0------ STEEP 4.7
2024-06-16 08:10 am 3.0------ AVERAGE 4.5
2024-06-16 07:40 am 3.0------ AVERAGE 4.6
2024-06-16 07:10 am 3.0------ AVERAGE 4.6
2024-06-16 06:40 am 3.0------ AVERAGE 4.8
2024-06-16 06:10 am 2.6------ AVERAGE 4.5
2024-06-16 05:40 am 3.0------ AVERAGE 4.5
2024-06-16 05:10 am 3.0------ AVERAGE 4.5
2024-06-16 04:40 am 3.0------ AVERAGE 4.5
2024-06-16 04:10 am 3.0------ AVERAGE 4.5
2024-06-16 03:40 am 3.3------ AVERAGE 4.6
2024-06-16 03:10 am 3.0------ AVERAGE 4.4
2024-06-16 02:40 am 3.3------ AVERAGE 4.5
2024-06-16 02:10 am 3.3------ AVERAGE 4.5
2024-06-16 01:40 am 3.3------ STEEP 4.4
2024-06-16 01:10 am 3.3------ AVERAGE 4.5
2024-06-16 12:40 am 3.3------ AVERAGE 4.5
2024-06-16 12:10 am 3.3------ AVERAGE 4.5
2024-06-15 11:40 pm 3.3------ AVERAGE 4.6
2024-06-15 11:10 pm 3.6------ AVERAGE 4.6
2024-06-15 10:40 pm 3.3------ AVERAGE 4.6
2024-06-15 10:10 pm 3.3------ AVERAGE 4.8
2024-06-15 09:40 pm 3.3------ AVERAGE 4.6
2024-06-15 09:10 pm 3.3------ AVERAGE 4.6
2024-06-15 08:40 pm 3.6------ STEEP 4.8
2024-06-15 08:10 pm 3.6------ AVERAGE 4.7
2024-06-15 07:40 pm 3.3------ AVERAGE 4.6
2024-06-15 07:10 pm 3.6------ AVERAGE 4.7
2024-06-15 06:40 pm 3.6------ STEEP 4.9
2024-06-15 06:10 pm 3.3------ AVERAGE 4.6
2024-06-15 05:40 pm 3.6------ AVERAGE 4.8
2024-06-15 05:10 pm 3.6------ AVERAGE 4.6
2024-06-15 04:40 pm 3.6------VERY_STEEP 4.6
2024-06-15 04:10 pm 3.6------ AVERAGE 4.5
2024-06-15 03:40 pm 3.6------ AVERAGE 4.4
2024-06-15 03:10 pm 3.6------ AVERAGE 4.4
2024-06-15 02:40 pm 3.6------ AVERAGE 4.5
2024-06-15 02:10 pm 3.6------ AVERAGE 4.6

Plot of wave energy versus frequency (and period)